BREEZE-M DEB

Satellite information

Favourite Embed

Satellite Type and Status

DEBRISIN ORBIT

Key statistics

Satellite BREEZE-M DEB at a glance.

Uptime

7186

Days in orbit

Revolutions

≈ 5.4

Per day

Orbit

MEO

Medium Earth Orbit

Inclination

51.9

Latest

Satellite identification and parameters

Extended collection of information and parameters for BREEZE-M DEB.

Object identification

Identified? True

Debris? True

Object name: BREEZE-M DEB

International designator: 2006-006BG

Object number (NORAD): 34241

Object ID (CCSDS): 34241

Country: COMMONWEALTH OF INDEPENDENT STATES (CIS)

Current information (Y/N): Y

RCS size: SMALL

Orbital parameters

Period: 266.13 minutes

Inclination: 51.8696 deg

SMA: 13705.343 km

Apoapsis: 14098.445 km

Periapsis: 555.972 km

RAAN: 334.1699 deg

Eccentricy: 0.49405814

Argument of periapsis: 225.5685 deg

Mean anomaly: 336.9696 deg

Mean motion: 5.4108798 rev/day

Mean motion (dot): 0.00002164 rev/day2

B* drag term: 0.0054487509 1/REarth

Two-line elements (TLE)

Creation date: Aug. 28, 2025, 11:13 p.m.

Reference frame: TEME

Reference center: EARTH

Epoch: Aug. 24, 2025, 5:07 p.m. UTC

TLE line 0: 0 BREEZE-M DEB

TLE line 1: 1 34241U 06006BG 25236.71365505 .00002164 00000-0 54488-2 0 9990

TLE line 2: 2 34241 51.8696 334.1699 4940581 225.5685 336.9696 5.41087980 23740

Live tracking on map

Real-time ground track for satellite BREEZE-M DEB.

In-orbit conjunctions

There are no conjunctions computed for BREEZE-M DEB, at the moment. Check back to stay up to date, as we update our databases every day.

Go to all conjunctions

Associated space launch

The Arabsat-4 spacecraft are based on the Eurostar-2000+ version of the Eurostar satellite family. Both satellites received the names Badr-1 and Badr-4 respectively in February 2006. Badr 1 did not reach its planned orbit, when the upper stage of the Proton-M Briz-M (Ph.3) launch vehicle failed. After evaluating a lunar fly-by maneuvre to rescue the satellite, Badr 1 was deorbited on 24.03.2006 over the pacific.

BREEZE-M DEB was lifted into orbit during the mission ‘Proton-M Briz-M | Arabsat 4A’, on board a Proton-M Briz-M space rocket.

The launch took place on Feb. 28, 2006, 8:10 p.m. from 200/39 (200L).

For more information about the launch, click the button.

Launch to space Proton-M Briz-M | Arabsat 4A
Proton-M Briz-M | Arabsat 4A

Agency: N/A

Status: Launch Failure

Launch date: Feb. 28, 2006, 8:10 p.m. UTC

Rocket: Proton-M Briz-M

Launch pad: 200/39 (200L)

Location: Baikonur Cosmodrome, Republic of Kazakhstan

...

Latest news about this satellite

There are no fresh news available about this satellite. Check back as we update our databases every day.


Newsletter sign-up

Weekly statistics, charts and insights to help you stay on top of the space industry.